GW4905 Weather Reports


time (UTC)temp
F
wind
direction
speed
knots
gust
knots
rain 1hr
in
rain 24hr
in
rain mn
in
humidity
%
barometer
mb
20260509232625 61 109 1.7 3.5 0.00 0.00 0.00 68 1008.2
20260509230800 62 111 1.7 3.5 0.00 0.00 0.00 66 1008.0
20260509223737 63 98 1.7 3.5 0.00 0.00 0.00 65 1008.0
20260509163154 61 304 0.9 1.7 0.00 0.00 0.00 62 1010.2
20260509162116 60 252 0.9 2.6 0.00 0.00 0.00 61 1010.3
20260509151414 57 137 0.9 1.7 0.00 0.00 0.00 73 1011.2
20260509143334 56 112 0.9 1.7 0.00 0.00 0.00 73 1011.2
20260509135821 55 32 0.9 2.6 0.00 0.00 0.00 69 1011.0
20260509133949 56 158 0.0 0.9 0.00 0.00 0.00 70 1010.6
20260509130923 56 180 0.0 1.7 0.00 0.00 0.00 66 1010.5
20260509130132 55 165 0.0 1.7 0.00 0.00 0.00 1010.4
20260509111609 55 264 0.9 2.6 0.00 0.00 0.00 61 1009.8
20260509104744 54 201 0.0 0.9 0.00 0.00 0.00 61 1009.7
20260509103046 54 185 0.9 1.7 0.00 0.00 0.00 62 1009.7
20260509101931 53 202 0.0 0.0 0.00 0.00 0.00 1009.8
20260509100145 53 180 0.0 0.9 0.00 0.00 0.00 61 1009.6
20260509094153 54 206 0.0 1.7 0.00 0.00 0.00 61 1009.7
20260509093158 54 194 0.0 1.7 0.00 0.00 0.00 61 1009.6
20260509085059 54 163 0.9 1.7 0.00 0.00 0.00 61 1009.9
20260509083232 53 162 0.9 2.6 0.00 0.00 0.00 61 1010.0
20260509074118 53 126 0.9 1.7 0.00 0.00 0.00 62 1010.1